Location: *
(48.0383°N, 3.2694°W)
Time: 04:21:14
(UTC+00:00)

Daily predictions for brighter satellites

Satellite Brightness Start Highest point End
(mag) Time Altitude Azimuth Time Altitude Azimuth Time Altitude Azimuth
CZ-4C R/B 3.5 00:21:10 10° NW 00:26:10 48° NNW 00:26:10 48° NNW
SL-16 R/B 4.1 00:32:49 28° NE 00:32:49 28° NE 00:37:44 10° N
ATLAS CENTAUR R/B 4.4 00:53:23 17° N 00:53:23 17° N 00:54:56 10° NNE
CZ-2D R/B 4.4 00:51:47 10° NE 00:53:39 17° ENE 00:53:39 17° ENE
Cosmos 2082 Rocket 3.8 00:57:22 10° NNW 01:01:22 31° NNE 01:01:22 31° NNE
Cosmos 1844 Rocket 4.3 01:07:55 31° NNE 01:07:55 31° NNE 01:10:53 10° NNE
USA 267 4.1 01:10:42 10° ENE 01:16:48 43° N 01:17:46 41° NNW
Cosmos 2263 Rocket 4.5 01:37:58 15° NW 01:38:22 15° NW 01:41:35 10° N
Cosmos 2278 Rocket 3.2 01:47:36 42° NE 01:47:36 42° NE 01:51:20 10° NNE
Lacrosse 5 rocket 4.2 01:51:22 15° NE 01:51:22 15° NE 01:52:29 10° ENE
SJ 16-02 3.9 01:45:47 10° N 01:47:11 18° N 01:47:11 18° N
Cosmos 1833 Rocket 4.5 01:45:18 10° NNW 01:47:21 23° NNW 01:47:21 23° NNW
Tsikada Rocket 4.3 02:01:30 61° NE 02:01:30 61° NE 02:06:39 10° NNE
ADEOS II 3.7 01:58:52 10° NE 02:03:18 27° E 02:03:18 27° E
SME Rocket 4.5 01:59:12 10° NNE 02:06:36 54° E 02:06:36 54° E
Resurs 1-4 Rocket 2.9 02:05:23 10° NNE 02:09:06 47° NNE 02:09:06 47° NNE
Lacrosse 5 3.4 02:14:31 31° N 02:14:31 31° N 02:19:01 10° NE
SL-16 R/B 3.3 02:17:55 41° NW 02:17:55 41° NW 02:21:59 10° NNW
CZ-4B R/B 4.5 02:18:52 16° NNE 02:18:52 16° NNE 02:19:57 10° NNE
Cosmos 1943 Rocket 4.4 02:21:24 13° ESE 02:23:22 15° E 02:26:29 10° ENE
Cosmos 2279 Rocket 4.5 02:20:28 10° N 02:26:37 55° ENE 02:28:23 42° SE
NPP 4.2 02:23:53 10° NNE 02:28:05 54° N 02:28:05 54° N
Cosmos 1634 Rocket 3.9 02:23:36 10° N 02:29:39 82° N 02:29:39 82° N
ATLAS CENTAUR R/B 4.4 02:29:43 10° NNW 02:31:26 12° NNW 02:33:07 10° N
ATLAS 5 CENTAUR R/B 2.8 02:33:14 40° NNE 02:33:14 40° NNE 02:36:42 10° NE
Cosmos 841 Rocket 4.4 02:32:05 41° E 02:32:05 41° E 02:36:47 10° NE
CZ-2D R/B 2.7 02:30:57 10° N 02:34:57 48° NNW 02:34:57 48° NNW
IRS-1D 3.8 02:34:27 10° NNE 02:39:12 70° NNE 02:39:12 70° NNE
Cosmos 2082 Rocket 4.0 02:41:21 10° NW 02:43:09 20° NW 02:43:09 20° NW
IRS-1C 4.1 02:41:30 10° NNE 02:46:38 80° NE 02:46:38 80° NE
Cosmos 2297 3.6 02:50:18 76° SE 02:50:24 77° ESE 02:56:07 10° NNE
Cosmos 1515 Rocket 4.3 02:51:57 50° NNE 02:51:57 50° NNE 02:55:18 10° NNE
Cosmos 1570 Rocket 4.0 02:56:36 75° NNW 02:56:36 75° NNW 03:01:36 10° NNE
USA 267 4.2 02:52:57 10° E 02:59:04 44° N 03:05:05 10° WNW
CRYOSAT 2 4.4 02:59:26 75° E 02:59:28 75° E 03:04:20 10° N
SL-4 R/B 3.5 03:03:03 29° NE 03:03:03 29° NE 03:05:07 10° ENE
ERS-1 4.4 02:58:27 10° NNE 03:03:34 89° ESE 03:03:40 86° S
Cosmos 1606 3.7 03:04:19 45° ENE 03:04:19 45° ENE 03:07:30 10° NNE
Cosmos 2369 Rocket 3.6 03:05:39 20° SSE 03:08:35 32° ESE 03:13:34 10° NE
Meteor 1-20 Rocket 4.4 03:04:30 10° N 03:09:58 66° ENE 03:14:18 16° SSE
IRIDIUM 106 4.4 03:15:03 47° SSE 03:16:32 76° E 03:21:45 10° N
ARIANE 5 R/B 2.3 03:12:36 10° NNE 03:17:46 75° WNW 03:18:09 70° WSW
Cosmos 1869 Rocket 4.0 03:15:51 10° N 03:20:19 62° ENE 03:22:29 29° SSE
CENTAUR R/B 3.9 03:17:25 18° SSE 03:20:59 32° ESE 03:26:53 10° NE
Cosmos 1782 4.0 03:22:37 29° SE 03:23:58 39° E 03:27:40 10° NNE
Cosmos 1763 Rocket 3.9 03:25:22 46° WNW 03:25:37 47° WNW 03:30:46 10° NNE
Lacrosse 5 rocket 2.1 03:27:04 29° NNW 03:28:54 52° NNE 03:33:09 10° ESE
USA 238 DEB 3.6 03:26:37 43° SSW 03:29:06 84° SE 03:36:05 10° NE
USA 238 3.6 03:26:43 43° SSW 03:29:13 83° SE 03:36:13 10° NE
Cosmos 540 Rocket 3.3 03:28:25 59° SSW 03:29:24 84° WNW 03:34:36 10° NNE
Cosmos 2278 Rocket 3.5 03:29:27 24° WNW 03:30:19 25° NW 03:34:57 10° N
deb Chang Zheng 4 4.4 03:26:50 10° N 03:30:20 37° NW 03:30:20 37° NW
Cosmos 2084 3.4 03:30:42 74° W 03:30:59 78° NW 03:35:26 10° NE
Unknown 4.1 03:32:00 41° NNE 03:32:00 41° NNE 03:34:29 10° ENE
Cosmos 2228 Rocket 3.1 03:33:27 61° WNW 03:33:27 61° WNW 03:37:56 10° N
IDEFIX/ARIANE 42P 3.8 03:31:00 10° NNE 03:35:57 39° E 03:40:52 10° SSE
Meteor 1-28 Rocket 3.0 03:36:54 87° NW 03:36:54 87° NW 03:40:38 10° NNW
Cosmos 2344 3.6 03:33:20 32° SSW 03:37:11 78° SE 03:45:28 10° NE
Unknown 3.2 03:40:23 76° ENE 03:40:23 76° ENE 03:43:41 10° ENE
Cosmos 1125 Rocket 3.5 03:35:38 10° NNW 03:41:00 84° ENE 03:46:19 10° SSE
SeaSat 1 3.3 03:38:13 10° NE 03:42:59 45° ESE 03:46:15 19° S
Unknown 4.4 03:42:38 35° SSE 03:43:06 36° SE 03:46:42 10° ENE
ADEOS II 2.4 03:38:10 10° N 03:43:13 48° WNW 03:44:13 42° W
Cosmos 1814 Rocket 4.2 03:43:48 45° W 03:44:47 52° WNW 03:49:52 10° NNE
CZ-4B R/B 3.9 03:52:11 12° NW 03:52:11 12° NW 03:52:34 10° NW
Resurs 1-4 Rocket 3.8 03:46:30 10° NNW 03:49:53 17° WNW 03:50:11 17° WNW
Meteor 1-25 Rocket 4.2 03:44:54 10° NNW 03:50:33 60° W 03:54:53 17° S
Meteor 1-14 Rocket 4.0 03:47:24 10° NNW 03:52:57 76° W 03:58:29 10° S
Unknown 3.9 03:53:07 42° S 03:53:50 48° SE 03:57:32 10° ENE
Cosmos 1461 2.8 03:50:33 10° NW 03:54:35 80° NE 03:58:43 10° SE
COSMOS 2487 3.6 03:52:03 10° N 03:55:25 43° ENE 03:58:45 10° SE
Cosmos 2150 Rocket 4.5 03:51:51 10° NW 03:56:56 40° WSW 03:59:04 28° SSW
Lacrosse 5 3.3 03:53:51 10° NW 03:58:33 36° NNE 04:03:14 10° E
Falcon 9 debris 3.3 03:59:27 53° WNW 03:59:59 62° NNW 04:03:27 10° ENE
Cosmos 372 Rocket 4.3 03:55:32 10° NW 04:00:25 41° WSW 04:03:30 21° SSW
USA 215 3.9 03:59:38 10° ENE 04:05:58 48° SE 04:11:18 15° SSW
Cosmos 1943 Rocket 2.1 04:02:57 25° SSW 04:06:18 87° WNW 04:11:54 10° NNE
Meteor 1-26 Rocket 4.2 04:04:44 27° SW 04:07:37 57° WNW 04:13:04 10° N
CZ-2C R/B 3.4 04:06:29 10° N 04:10:13 37° WNW 04:10:56 34° W
Cosmos 2263 4.4 04:06:17 14° SSW 04:11:04 69° ESE 04:16:40 10° NNE
ATLAS CENTAUR R/B 4.4 04:10:45 10° N 04:12:30 12° NNE 04:14:11 10° NE
Unknown 3.5 04:12:04 38° W 04:13:10 58° NNW 04:16:41 10° ENE
Cosmos 841 Rocket 4.4 04:12:11 26° W 04:13:54 32° NW 04:18:35 10° N
CZ-2D R/B 4.1 04:13:27 10° NNW 04:15:12 12° NW 04:16:16 11° WNW
CZ-2D R/B 4.5 04:12:20 10° N 04:15:45 27° WNW 04:16:16 26° W
NOSS 3-2 (A) 3.5 04:12:18 26° WSW 04:15:45 66° NW 04:22:27 10° NE
NOSS 3-2 (C) 3.4 04:13:00 23° SW 04:16:57 87° NW 04:23:41 10° NE
ATLAS 5 CENTAUR R/B 3.8 04:14:46 12° WNW 04:17:36 19° NNW 04:21:17 10° NNE
Spot 2 4.2 04:12:53 10° N 04:17:37 66° WNW 04:20:45 19° SSW
USA 102 4.3 04:15:00 10° NNE 04:18:34 55° WNW 04:20:58 29° SW
Cosmos 1092 Rocket 3.9 04:18:17 10° SSW 04:24:23 73° W 04:30:34 10° N
ATLAS 3B R/B 2.6 04:20:45 15° SSW 04:26:21 83° SE 04:32:57 10° NE
Unknown 4.5 04:24:02 18° SSW 04:26:43 43° SE 04:30:39 10° ENE
Cosmos 1707 Rocket 3.6 04:23:31 17° SSW 04:26:50 57° WNW 04:31:12 10° N
H-2A R/B 2.2 04:23:01 10° NNE 04:26:54 88° ESE 04:30:44 10° SSW
ATLAS 5 CENTAUR R/B 2.7 04:26:25 20° WNW 04:27:30 26° NNW 04:31:27 10° NE
Unknown 4.4 04:25:37 18° SSW 04:28:21 44° SE 04:32:18 10° ENE
Atlas Centaur 2 4.3 04:25:31 13° SW 04:29:28 20° S 04:34:57 10° SE
Unknown 4.4 04:28:47 17° SSW 04:31:39 47° SE 04:35:38 10° ENE
Starlink (trailer) 4.3 04:30:23 17° SSW 04:33:18 48° SE 04:37:18 10° ENE
ADEOS 3.6 04:29:39 10° N 04:34:48 62° WNW 04:39:56 10° SSW
Unknown 4.3 04:31:59 17° SW 04:34:57 49° SE 04:38:59 10° ENE
Unknown 4.2 04:33:36 16° SW 04:36:38 50° SE 04:40:40 10° ENE
Cosmos 1733 Rocket 3.0 04:32:56 10° NNW 04:37:23 68° W 04:41:48 10° S
Cosmos 1340 3.7 04:33:49 10° N 04:37:32 50° ENE 04:41:13 10° SSE
Unknown 3.4 04:36:13 22° WSW 04:38:29 72° NNW 04:42:15 10° ENE
FALCON 9 DEB 3.9 04:37:07 19° W 04:39:18 45° NNW 04:42:42 10° ENE
PSLV R/B 3.8 04:35:50 10° N 04:40:07 53° WNW 04:44:21 10° SSW
Iridium 4 Rocket 3.3 04:36:52 10° SSW 04:41:25 53° W 04:45:41 10° N
SL-4 R/B 1.6 04:38:40 14° WNW 04:41:33 85° NNE 04:45:12 10° ESE
USA 267 3.4 04:35:07 10° ESE 04:41:39 77° NNE 04:48:12 10° NW
Meteor 1-27 Rocket 4.2 04:36:04 10° S 04:41:54 68° E 04:47:41 10° NNE
Meteor 2-6 Rocket 4.3 04:37:12 10° SSW 04:42:59 70° WNW 04:48:58 10° N
Unknown 4.1 04:40:01 15° SW 04:43:17 56° SE 04:47:21 10° ENE
Unknown 4.0 04:41:35 15° SW 04:44:54 57° SSE 04:48:59 10° ENE
Unknown 4.0 04:42:22 15° SW 04:45:43 59° SE 04:49:48 10° ENE
Meteor 1-10 Rocket 4.3 04:41:27 10° SSW 04:47:20 72° WNW 04:53:18 10° N
Unknown 4.0 04:44:47 14° SW 04:48:14 60° SSE 04:52:20 10° ENE
Unknown 4.1 04:46:27 15° WNW 04:49:00 40° NNW 04:52:18 10° ENE
Cosmos 1833 4.2 04:43:46 10° NW 04:49:17 58° WSW 04:54:46 10° S
Unknown 3.9 04:46:31 14° SW 04:49:59 64° SSE 04:54:06 10° ENE
Cosmos 1315 Rocket 3.4 04:45:58 10° S 04:50:03 65° E 04:54:11 10° NNE
Cosmos 44 3.5 04:45:53 10° SSW 04:50:56 73° SE 04:55:44 10° NE
Meteor 1-11 Rocket 3.6 04:45:26 10° NNW 04:51:05 76° W 04:56:37 10° S
Unknown 3.9 04:47:38 13° SW 04:51:11 63° SSE 04:55:18 10° ENE
Cosmos 2369 Rocket 2.6 04:47:29 13° SW 04:52:25 47° NW 04:57:56 10° NNE
Cosmos 220 Rocket 4.3 04:49:07 11° SW 04:53:09 49° WNW 04:57:20 10° NNE
Unknown 3.8 04:49:40 13° SW 04:53:16 67° SSE 04:57:24 10° ENE
Cosmos 2297 Rocket 4.5 04:49:41 10° N 04:54:25 26° NE 04:59:07 10° ESE
Unknown 3.9 04:51:11 13° SW 04:54:52 67° SSE 04:59:00 10° ENE
Unknown 3.8 04:51:57 12° SW 04:55:39 68° SSE 04:59:47 10° ENE
ARIANE 5 R/B 4.4 04:53:38 10° NNW 04:55:59 13° NW 04:58:20 10° W
Unknown 3.8 04:54:17 12° SW 04:58:07 68° SSE 05:02:15 10° ENE
Cosmos 1782 4.3 04:58:16 13° WSW 05:00:28 19° WNW 05:03:22 10° NNW
Unknown 3.8 04:57:35 11° SW 05:01:32 73° SSE 05:05:40 10° ENE
Unknown 3.7 04:59:12 11° SW 05:03:11 75° SSE 05:07:20 10° ENE
Unknown 3.7 05:00:46 10° SW 05:04:49 77° SSE 05:08:58 10° ENE
BREEZE-M DEB (TANK) 3.1 04:56:44 11° W 05:06:24 73° S 05:09:35 10° E
SKYMED 2 4.2 05:02:11 10° SSE 05:06:28 61° ENE 05:10:46 10° N
Cosmos 1500 3.3 05:02:49 10° NNW 05:06:28 51° W 05:10:06 10° S
Unknown 3.7 05:02:23 10° SW 05:06:30 78° SSE 05:10:39 10° ENE
Cosmos 1553 Rocket 4.0 05:00:24 10° NNW 05:06:40 68° W 05:12:47 10° S
Cosmos 1782 Rocket 4.3 05:02:22 10° N 05:06:42 58° ENE 05:11:00 10° SSE
Unknown 4.4 05:04:35 10° WNW 05:07:33 32° N 05:10:31 10° ENE
Lacrosse 5 rocket 2.1 05:04:08 10° WNW 05:08:00 34° SW 05:12:01 10° SSE
Timation 2 Rocket 3.9 05:03:25 10° NW 05:09:24 62° WSW 05:15:15 10° SSE
Unknown 3.7 05:05:43 10° WSW 05:09:51 82° SSE 05:14:01 10° ENE
Cosmos 1656 Rocket 3.7 05:04:24 10° SW 05:10:05 73° WNW 05:15:47 10° NNE
Cosmos 2242 Rocket 3.6 05:05:58 10° SSW 05:10:29 68° W 05:15:01 10° N
Unknown 4.2 05:08:14 10° WNW 05:10:50 30° N 05:13:27 10° ENE
CENTAUR R/B 2.8 05:05:03 10° SW 05:11:09 63° NW 05:18:21 10° NE
Unknown 3.7 05:07:24 10° WSW 05:11:32 84° SSE 05:15:41 10° ENE
Cosmos 1400 Rocket 3.7 05:08:49 10° SW 05:12:17 29° WNW 05:15:43 10° N
Unknown 3.7 05:09:06 10° WSW 05:13:15 85° SSE 05:17:25 10° ENE
Unknown 3.7 05:10:35 10° WSW 05:14:43 85° SSE 05:18:54 10° ENE
IDEFIX/ARIANE 42P 3.4 05:10:47 10° N 05:15:27 33° WNW 05:20:08 10° SW
Unknown 3.7 05:12:35 10° WSW 05:16:45 89° SE 05:20:55 10° ENE
Aureole 2 Rocket 2.1 05:14:23 10° SSW 05:17:05 69° ESE 05:19:44 10° NNE
Unknown 4.2 05:14:21 10° WNW 05:17:40 37° N 05:20:59 10° ENE
Unknown 3.7 05:13:47 10° WSW 05:17:56 86° SSE 05:22:06 10° ENE
PAYLOAD A 4.1 05:15:09 10° N 05:19:48 48° WNW 05:24:19 10° SW
MSX 4.1 05:14:38 10° N 05:20:08 48° WNW 05:25:36 10° SW
SeaSat 1 3.3 05:15:58 10° NNE 05:20:22 33° NW 05:24:46 10° WSW
Unknown 3.7 05:17:08 10° WSW 05:21:17 89° SSE 05:25:27 10° ENE
Cosmos 1703 Rocket 3.7 05:16:56 10° S 05:21:23 87° ESE 05:25:50 10° N
